Location: Gez
(43.0167°N, 0.1000°W)
Time: 13:10:50
(UTC+00:00)

SL-24 R/B - Pass Details

Date: 19 January 2026
Orbit: 679 x 1188 km, 98.2° (Epoch: 10 February)

Event Time Altitude Azimuth Distance (km) Brightness Sun altitude
Rises 02:34:42 0° 25° (NNE) 4,090 9.2 -52.4°
Reaches altitude 10° 02:38:09 10° 40° (NE) 3,123 8.5 -51.8°
Enters shadow 02:40:34 17° 58° (ENE) 2,606 8.1 -51.4°
